MOLNIYA 1-80

Last updated on Tue Jun 27 2023 00:03:05 GMT+0000 (Coordinated Universal Time)

1 21118U 91012A 23176.36485257 -.00000884 00000+0 00000+0 0 9994 2 21118 65.1458 293.4186 6665057 272.6971 18.7485 2.05248461238644
UTC large
Height (km)
Speed (km/s)
/
Latitude / Longitude
Inclination (degrees)
Orbital Period (minutes)
Azimuth
Elevation
Range (km)
Doppler Factor

Next 0 passes for location: London (51.5072 / 0.1276)

Sorry there are no passes over London.
MOLNIYA 1-80